Location: Aalen
(48.8330°N, 10.1000°E)
Time: 04:34:53
(UTC+02:00)

M-CUBED/EXP-1 PRIME - Pass Details

Date: 21 September 2021
Orbit: 427 x 655 km, 101.7° (Epoch: 23 October)

Event Time Altitude Azimuth Distance (km) Brightness Sun altitude
Rises 04:58:01 0° 34° (NE) 2,453 ? -20.9°
Reaches altitude 10° 05:00:35 10° 56° (NE) 1,553 ? -20.5°
Maximum altitude 05:02:49 17° 99° (E) 1,182 ? -20.2°
Drops below altitude 10° 05:04:59 10° 142° (SE) 1,522 ? -19.9°
Enters shadow 05:07:01 - 161° (SSE) 2,208 ? -19.6°
